Location: Beadle
(51.4667°N, 109.0000°W)
Time: 04:15:57
(UTC+00:00)

Envisat - Pass Details

Date: 26 January 2022
Orbit: 764 x 765 km, 98.2° (Epoch: 25 May)

Event Time Altitude Azimuth Distance (km) Brightness Sun altitude
Rises 10:57:05 0° 26° (NNE) 3,244 6.8 -37.8°
Reaches altitude 10° 11:00:06 10° 44° (NE) 2,312 6.1 -37.3°
Maximum altitude 11:03:38 19° 88° (E) 1,783 5.4 -36.8°
Drops below altitude 10° 11:07:09 10° 133° (SE) 2,301 5.7 -36.3°
Sets 11:10:08 0° 151° (SSE) 3,221 6.4 -35.8°
